TimeMDT,TemperatureF,Dew PointF,Humidity,Sea Level PressureIn,VisibilityMPH,Wind Direction,Wind SpeedMPH,Gust SpeedMPH,PrecipitationIn,Events,Conditions,WindDirDegrees,DateUTC
12:15 AM,75.2,38.8,27,30.21,10.0,ESE,4.6,-,N/A,,Clear,110,2013-09-06 06:15:00
12:35 AM,72.3,39.2,30,30.21,10.0,NE,3.5,-,N/A,,Clear,40,2013-09-06 06:35:00
12:55 AM,72.3,39.6,30,30.21,10.0,Calm,Calm,-,N/A,,Clear,0,2013-09-06 06:55:00
1:15 AM,70.7,40.1,33,30.21,10.0,Calm,Calm,-,N/A,,Clear,0,2013-09-06 07:15:00
1:35 AM,68.9,40.1,35,30.21,10.0,Calm,Calm,-,N/A,,Clear,0,2013-09-06 07:35:00
1:55 AM,71.4,42.3,35,30.21,10.0,East,3.5,-,N/A,,Clear,90,2013-09-06 07:55:00
2:15 AM,72.7,46.0,39,30.21,10.0,East,3.5,-,N/A,,Clear,90,2013-09-06 08:15:00
2:35 AM,73.4,48.0,41,30.20,10.0,East,4.6,-,N/A,,Clear,100,2013-09-06 08:35:00
2:55 AM,73.0,48.6,42,30.21,10.0,East,3.5,-,N/A,,Clear,100,2013-09-06 08:55:00
3:15 AM,72.5,49.3,44,30.20,10.0,East,4.6,-,N/A,,Clear,100,2013-09-06 09:15:00
3:35 AM,73.8,50.4,44,30.20,10.0,SE,4.6,-,N/A,,Clear,130,2013-09-06 09:35:00
3:55 AM,71.8,50.5,47,30.20,10.0,ESE,3.5,-,N/A,,Clear,120,2013-09-06 09:55:00
4:15 AM,71.1,50.7,49,30.20,10.0,ESE,4.6,-,N/A,,Clear,110,2013-09-06 10:15:00
4:35 AM,70.5,50.9,50,30.20,10.0,East,3.5,-,N/A,,Clear,90,2013-09-06 10:35:00
4:55 AM,70.9,51.3,50,30.20,10.0,East,3.5,-,N/A,,Clear,100,2013-09-06 10:55:00
5:15 AM,69.3,51.3,53,30.20,10.0,East,4.6,-,N/A,,Clear,90,2013-09-06 11:15:00
5:35 AM,70.9,51.8,51,30.21,10.0,East,3.5,-,N/A,,Clear,100,2013-09-06 11:35:00
5:55 AM,69.3,51.8,54,30.21,10.0,East,4.6,-,N/A,,Clear,90,2013-09-06 11:55:00
6:15 AM,69.8,52.2,53,30.21,10.0,East,3.5,-,N/A,,Clear,90,2013-09-06 12:15:00
6:35 AM,69.8,52.5,54,30.21,10.0,ESE,3.5,-,N/A,,Clear,110,2013-09-06 12:35:00
6:55 AM,69.3,52.0,54,30.21,10.0,East,4.6,-,N/A,,Clear,100,2013-09-06 12:55:00
7:15 AM,70.0,53.1,55,30.22,10.0,East,3.5,-,N/A,,Clear,100,2013-09-06 13:15:00
7:35 AM,71.8,54.1,54,30.23,10.0,East,3.5,-,N/A,,Clear,90,2013-09-06 13:35:00
7:55 AM,74.5,53.6,48,30.23,10.0,ESE,3.5,-,N/A,,Clear,110,2013-09-06 13:55:00
8:15 AM,76.3,53.2,45,30.24,10.0,East,4.6,-,N/A,,Clear,100,2013-09-06 14:15:00
8:35 AM,77.7,52.7,42,30.24,10.0,East,3.5,-,N/A,,Clear,100,2013-09-06 14:35:00
8:55 AM,78.3,52.2,40,30.25,10.0,East,5.8,-,N/A,,Clear,80,2013-09-06 14:55:00
9:15 AM,79.3,51.8,38,30.25,10.0,East,4.6,-,N/A,,Clear,100,2013-09-06 15:15:00
9:35 AM,80.1,50.9,36,30.25,10.0,East,4.6,-,N/A,,Clear,100,2013-09-06 15:35:00
9:55 AM,81.3,50.9,35,30.26,10.0,East,3.5,-,N/A,,Clear,90,2013-09-06 15:55:00
10:15 AM,81.1,50.9,35,30.26,10.0,SE,4.6,-,N/A,,Clear,130,2013-09-06 16:15:00
10:35 AM,83.8,51.3,32,30.25,10.0,ESE,5.8,-,N/A,,Clear,120,2013-09-06 16:35:00
10:55 AM,84.6,50.2,30,30.25,10.0,ESE,5.8,-,N/A,,Clear,120,2013-09-06 16:55:00
11:15 AM,85.6,50.7,30,30.24,10.0,SE,8.1,-,N/A,,Clear,140,2013-09-06 17:15:00
11:35 AM,86.7,50.9,29,30.23,10.0,East,10.4,-,N/A,,Clear,100,2013-09-06 17:35:00
11:55 AM,87.3,50.9,29,30.23,10.0,SSE,8.1,-,N/A,,Clear,150,2013-09-06 17:55:00
12:15 PM,87.3,50.0,28,30.22,10.0,SE,6.9,16.1,N/A,,Clear,140,2013-09-06 18:15:00
12:35 PM,88.9,49.5,26,30.22,10.0,East,9.2,-,N/A,,Scattered Clouds,100,2013-09-06 18:35:00
12:55 PM,86.7,49.5,28,30.20,10.0,ESE,10.4,-,N/A,,Clear,110,2013-09-06 18:55:00
1:15 PM,89.1,49.3,25,30.19,10.0,ESE,9.2,-,N/A,,Clear,110,2013-09-06 19:15:00
1:35 PM,89.8,48.4,24,30.18,10.0,SSE,11.5,16.1,N/A,,Clear,160,2013-09-06 19:35:00
1:55 PM,87.6,46.9,24,30.18,10.0,ESE,9.2,-,N/A,,Clear,120,2013-09-06 19:55:00
2:15 PM,90.7,48.2,23,30.16,10.0,East,9.2,-,N/A,,Scattered Clouds,100,2013-09-06 20:15:00
2:35 PM,90.5,45.9,21,30.15,10.0,NNE,8.1,16.1,N/A,,Scattered Clouds,30,2013-09-06 20:35:00
2:55 PM,90.9,46.0,21,30.15,10.0,East,5.8,-,N/A,,Scattered Clouds,80,2013-09-06 20:55:00
3:15 PM,91.4,46.0,21,30.14,10.0,North,3.5,16.1,N/A,,Scattered Clouds,360,2013-09-06 21:15:00
3:35 PM,88.2,46.9,24,30.13,10.0,Calm,Calm,-,N/A,,Scattered Clouds,0,2013-09-06 21:35:00
3:55 PM,89.2,48.0,24,30.12,10.0,Calm,Calm,-,N/A,,Clear,0,2013-09-06 21:55:00
4:15 PM,90.3,48.7,24,30.11,10.0,ESE,6.9,-,N/A,,Clear,120,2013-09-06 22:15:00
4:35 PM,90.0,48.4,24,30.10,10.0,ESE,8.1,-,N/A,Thunderstorm,Thunderstorm,110,2013-09-06 22:35:00
4:55 PM,87.8,50.7,28,30.10,10.0,NNE,17.3,-,N/A,,Scattered Clouds,30,2013-09-06 22:55:00
5:15 PM,88.7,48.6,25,30.09,10.0,NE,12.7,17.3,N/A,,Scattered Clouds,50,2013-09-06 23:15:00
5:35 PM,89.1,48.0,24,30.09,10.0,ENE,8.1,-,N/A,,Clear,60,2013-09-06 23:35:00
5:55 PM,89.4,47.8,24,30.09,10.0,ENE,8.1,-,N/A,,Clear,70,2013-09-06 23:55:00
6:15 PM,88.9,48.2,25,30.09,10.0,East,9.2,-,N/A,,Clear,100,2013-09-07 00:15:00
6:35 PM,87.1,48.6,26,30.09,10.0,SE,12.7,20.7,N/A,,Scattered Clouds,140,2013-09-07 00:35:00
6:55 PM,86.9,47.8,26,30.08,10.0,SE,6.9,-,N/A,,Clear,130,2013-09-07 00:55:00
7:15 PM,85.5,48.2,27,30.08,10.0,ESE,4.6,-,N/A,,Clear,120,2013-09-07 01:15:00
7:35 PM,84.4,48.2,28,30.09,10.0,East,3.5,-,N/A,,Clear,100,2013-09-07 01:35:00
7:55 PM,83.3,48.2,29,30.10,10.0,Calm,Calm,-,N/A,,Scattered Clouds,0,2013-09-07 01:55:00
8:15 PM,82.4,48.4,30,30.10,10.0,East,3.5,-,N/A,,Scattered Clouds,80,2013-09-07 02:15:00
8:35 PM,80.2,48.2,32,30.10,10.0,Calm,Calm,-,N/A,,Scattered Clouds,0,2013-09-07 02:35:00
8:55 PM,79.7,50.2,36,30.11,10.0,ENE,12.7,17.3,N/A,,Mostly Cloudy,60,2013-09-07 02:55:00
9:15 PM,82.0,50.0,33,30.12,10.0,East,8.1,-,N/A,,Overcast,80,2013-09-07 03:15:00
9:35 PM,82.4,48.6,31,30.12,10.0,NE,3.5,-,N/A,,Overcast,50,2013-09-07 03:35:00
9:55 PM,82.2,48.4,31,30.12,10.0,East,4.6,-,N/A,,Overcast,80,2013-09-07 03:55:00
10:15 PM,81.7,48.7,32,30.13,10.0,ENE,5.8,-,N/A,,Overcast,60,2013-09-07 04:15:00
10:35 PM,80.8,48.6,32,30.14,10.0,East,9.2,-,N/A,,Mostly Cloudy,90,2013-09-07 04:35:00
10:55 PM,80.8,48.9,33,30.14,10.0,East,5.8,-,N/A,,Scattered Clouds,100,2013-09-07 04:55:00
11:15 PM,79.3,49.6,35,30.15,10.0,ESE,6.9,-,N/A,,Clear,120,2013-09-07 05:15:00
11:35 PM,79.2,50.0,36,30.15,10.0,ESE,8.1,-,N/A,,Clear,110,2013-09-07 05:35:00
11:55 PM,78.8,50.7,37,30.15,10.0,ESE,8.1,-,N/A,,Clear,110,2013-09-07 05:55:00